Beaver Bay, MN

5:46 PM CDT on August 27, 2016 (GMT -0500)
Silver Bay Municipal

Weather History for KBFW - October, 2013

Change the Weather History Date:

Friday, October 25, 2013

  Actual Average Record
Temperature  
Mean Temperature 34 °F -  
Max Temperature 44 °F 44 °F 60 °F (2014)
Min Temperature 24 °F 29 °F 17 °F (2006)
Degree Days  
Heating Degree Days 31    
Moisture  
Dew Point 26 °F    
Average Humidity 70    
Maximum Humidity 93    
Minimum Humidity 52    
Precipitation  
Precipitation 0.00 in - - ()
Sea Level Pressure  
Sea Level Pressure 29.91 in    
Wind  
Wind Speed 5 mph (SW)    
Max Wind Speed 25 mph    
Max Gust Speed 33 mph    
Visibility 10 miles    
Events      
Averages and records for this station are not official NWS values.
T = Trace of Precipitation, MM = Missing Value Source: NWS Daily Summary

Daily Weather History Graph

Daily Weather History Graph

Search for Another Location

Airport or City:

Trip Planner

Search our weather history database for the weather conditions in past years. The results will help you decide how hot, cold, wet, or windy it might be!

Date:

Astronomy

Oct. 25, 2013 Rise Set
Actual Time 7:38 AM CDT 5:59 PM CDT
Civil Twilight 7:07 AM CDT 6:31 PM CDT
Nautical Twilight 6:31 AM CDT 7:06 PM CDT
Astronomical Twilight 5:56 AM CDT 7:42 PM CDT
Moon 11:14 PM CDT (10/25) 1:26 PM CDT (10/25)
Length of Visible Light 11h 23m
Length of Day
10h 20m
Waning Gibbous, 62% of the Moon is Illuminated
Oct 25
Waning Gibbous
Oct 26
Last Quarter
Nov 3
New
Nov 9
First Quarter
Nov 17
Full

Hourly Weather History & Observations

Time (CDT) Temp. Windchill Dew Point Humidity Pressure Visibility Wind Dir Wind Speed Gust Speed Precip Events Conditions
12:13 AM 30.2 °F 26.7 °F 26.6 °F 86% 30.18 in 10.0 mi WNW 3.5 mph - N/A   Clear
12:33 AM 30.2 °F 26.7 °F 26.6 °F 86% 30.18 in 10.0 mi WNW 3.5 mph - N/A   Clear
12:53 AM 30.2 °F 25.4 °F 26.6 °F 86% 30.18 in 10.0 mi WNW 4.6 mph - N/A   Clear
1:13 AM 30.2 °F - 26.6 °F 86% 30.18 in 10.0 mi Calm Calm - N/A   Clear
1:33 AM 30.2 °F - 24.8 °F 80% 30.19 in 10.0 mi Calm Calm - N/A   Clear
1:53 AM 30.2 °F 26.7 °F 24.8 °F 80% 30.19 in 10.0 mi WNW 3.5 mph - N/A   Clear
2:13 AM 30.2 °F - 24.8 °F 80% 30.19 in 10.0 mi Calm Calm - N/A   Clear
2:33 AM 30.2 °F 25.4 °F 24.8 °F 80% 30.19 in 10.0 mi WNW 4.6 mph - N/A   Clear
2:53 AM 30.2 °F 26.7 °F 24.8 °F 80% 30.18 in 10.0 mi NW 3.5 mph - N/A   Clear
3:13 AM 28.4 °F - 24.8 °F 86% 30.18 in 10.0 mi Calm Calm - N/A   Clear
3:33 AM 28.4 °F 24.6 °F 24.8 °F 86% 30.18 in 10.0 mi WNW 3.5 mph - N/A   Clear
3:53 AM 28.4 °F - 24.8 °F 86% 30.17 in 10.0 mi Calm Calm - N/A   Clear
4:13 AM 28.4 °F - 24.8 °F 86% 30.17 in 10.0 mi Calm Calm - N/A   Clear
4:33 AM 28.4 °F - 24.8 °F 86% 30.17 in 10.0 mi Calm Calm - N/A   Clear
4:53 AM 28.4 °F - 24.8 °F 86% 30.17 in 10.0 mi Calm Calm - N/A   Clear
5:13 AM 26.6 °F - 24.8 °F 93% 30.17 in 10.0 mi Calm Calm - N/A   Clear
5:33 AM 26.6 °F - 23.0 °F 86% 30.17 in 10.0 mi Calm Calm - N/A   Clear
5:53 AM 26.6 °F - 23.0 °F 86% 30.18 in 10.0 mi Calm Calm - N/A   Clear
6:13 AM 26.6 °F - 23.0 °F 86% 30.17 in 10.0 mi Calm Calm - N/A   Clear
6:33 AM 26.6 °F - 23.0 °F 86% 30.16 in 10.0 mi Calm Calm - N/A   Clear
6:53 AM 26.6 °F - 23.0 °F 86% 30.16 in 10.0 mi Calm Calm - N/A   Clear
7:13 AM 26.6 °F - 23.0 °F 86% 30.15 in 10.0 mi Calm Calm - N/A   Clear
7:33 AM 26.6 °F - 23.0 °F 86% 30.14 in 10.0 mi Calm Calm - N/A   Clear
7:53 AM 24.8 °F - 19.4 °F 80% 30.13 in 10.0 mi Calm Calm - N/A   Clear
8:13 AM 24.8 °F - 21.2 °F 86% 30.12 in 10.0 mi Calm Calm - N/A   Clear
8:33 AM 24.8 °F - 21.2 °F 86% 30.11 in 10.0 mi Calm Calm - N/A   Clear
8:53 AM 24.8 °F - 21.2 °F 86% 30.11 in 10.0 mi Calm Calm - N/A   Clear
9:13 AM 28.4 °F - 24.8 °F 86% 30.10 in 10.0 mi Calm Calm - N/A   Clear
9:33 AM 30.2 °F 26.7 °F 26.6 °F 86% 30.09 in 10.0 mi SSW 3.5 mph - N/A   Clear
9:53 AM 32.0 °F 27.5 °F 26.6 °F 80% 30.08 in 10.0 mi SW 4.6 mph - N/A   Clear
10:13 AM 33.8 °F 29.6 °F 26.6 °F 75% 30.07 in 10.0 mi SSW 4.6 mph - N/A   Clear
10:33 AM 35.6 °F 29.2 °F 26.6 °F 70% 30.06 in 10.0 mi SW 8.1 mph - N/A   Clear
10:53 AM 35.6 °F 27.5 °F 26.6 °F 70% 30.04 in 10.0 mi South 11.5 mph 18.4 mph N/A   Clear
11:13 AM 35.6 °F 28.6 °F 24.8 °F 65% 30.03 in 10.0 mi SSW 9.2 mph - N/A   Scattered Clouds
11:33 AM 35.6 °F 29.9 °F 24.8 °F 65% 30.02 in 10.0 mi South 6.9 mph - N/A   Scattered Clouds
11:53 AM 35.6 °F 27.5 °F 24.8 °F 65% 30.00 in 10.0 mi SSW 11.5 mph - N/A   Scattered Clouds
12:13 PM 37.4 °F 29.3 °F 24.8 °F 60% 29.98 in 10.0 mi South 12.7 mph 23.0 mph N/A   Scattered Clouds
12:33 PM 37.4 °F 27.8 °F 23.0 °F 56% 29.94 in 10.0 mi South 17.3 mph 23.0 mph N/A   Scattered Clouds
12:53 PM 37.4 °F 27.8 °F 23.0 °F 56% 29.92 in 10.0 mi SSW 17.3 mph 25.3 mph N/A   Scattered Clouds
1:13 PM 37.4 °F 27.8 °F 24.8 °F 60% 29.89 in 10.0 mi South 17.3 mph 23.0 mph N/A   Clear
1:33 PM 39.2 °F 29.6 °F 24.8 °F 56% 29.85 in 10.0 mi South 19.6 mph 31.1 mph N/A   Clear
1:53 PM 39.2 °F 28.3 °F 23.0 °F 52% 29.83 in 10.0 mi South 25.3 mph 33.4 mph N/A   Clear
2:13 PM 39.2 °F 31.2 °F 23.0 °F 52% 29.80 in 10.0 mi SSW 13.8 mph 26.5 mph N/A   Scattered Clouds
2:33 PM 39.2 °F 28.7 °F 23.0 °F 52% 29.78 in 10.0 mi South 23.0 mph 29.9 mph N/A   Scattered Clouds
2:53 PM 39.2 °F 29.6 °F 23.0 °F 52% 29.75 in 10.0 mi SSW 19.6 mph 28.8 mph N/A   Scattered Clouds
3:13 PM 39.2 °F 30.2 °F 23.0 °F 52% 29.72 in 10.0 mi SSW 17.3 mph 27.6 mph N/A   Scattered Clouds
3:33 PM 39.2 °F 29.3 °F 23.0 °F 52% 29.71 in 10.0 mi SSW 20.7 mph 28.8 mph N/A   Clear
3:53 PM 41.0 °F 31.9 °F 24.8 °F 53% 29.68 in 10.0 mi SSW 19.6 mph 26.5 mph N/A   Clear
4:13 PM 41.0 °F 33.9 °F 26.6 °F 57% 29.67 in 10.0 mi SSW 12.7 mph 24.2 mph N/A   Clear
4:33 PM 42.8 °F 35.1 °F 26.6 °F 53% 29.67 in 10.0 mi SSW 16.1 mph 25.3 mph N/A   Clear
4:53 PM 42.8 °F 35.4 °F 26.6 °F 53% 29.65 in 10.0 mi SSW 15.0 mph 24.2 mph N/A   Clear
5:13 PM 42.8 °F 37.0 °F 26.6 °F 53% 29.65 in 10.0 mi SSW 10.4 mph 21.9 mph N/A   Clear
5:33 PM 42.8 °F 38.0 °F 26.6 °F 53% 29.64 in 10.0 mi SSW 8.1 mph - N/A   Clear
5:53 PM 42.8 °F 39.3 °F 26.6 °F 53% 29.64 in 10.0 mi SSW 5.8 mph - N/A   Clear
6:13 PM 42.8 °F 39.3 °F 28.4 °F 57% 29.62 in 10.0 mi SSW 5.8 mph - N/A   Clear
6:33 PM 42.8 °F 40.1 °F 28.4 °F 57% 29.62 in 10.0 mi SSW 4.6 mph - N/A   Clear
6:53 PM 42.8 °F 40.1 °F 28.4 °F 57% 29.62 in 10.0 mi SW 4.6 mph - N/A   Clear
7:13 PM 42.8 °F 38.6 °F 28.4 °F 57% 29.61 in 10.0 mi SSW 6.9 mph - N/A   Clear
7:33 PM 42.8 °F 38.6 °F 30.2 °F 61% 29.61 in 10.0 mi SW 6.9 mph - N/A   Clear
7:53 PM 42.8 °F 41.1 °F 30.2 °F 61% 29.60 in 10.0 mi SW 3.5 mph - N/A   Clear
8:13 PM 42.8 °F 41.1 °F 30.2 °F 61% 29.59 in 10.0 mi SW 3.5 mph - N/A   Clear
8:33 PM 42.8 °F 41.1 °F 30.2 °F 61% 29.58 in 10.0 mi SSW 3.5 mph - N/A   Clear
8:53 PM 42.8 °F 41.1 °F 30.2 °F 61% 29.58 in 10.0 mi SW 3.5 mph - N/A   Clear
9:13 PM 41.0 °F 37.1 °F 30.2 °F 65% 29.58 in 10.0 mi WSW 5.8 mph - N/A   Clear
9:33 PM 44.6 °F 40.2 °F 30.2 °F 57% 29.59 in 10.0 mi West 8.1 mph - N/A   Clear
9:53 PM 44.6 °F 41.4 °F 30.2 °F 57% 29.60 in 10.0 mi West 5.8 mph 23.0 mph N/A   Clear
10:13 PM 44.6 °F 41.4 °F 30.2 °F 57% 29.60 in 10.0 mi West 5.8 mph - N/A   Clear
10:33 PM 42.8 °F 40.1 °F 30.2 °F 61% 29.61 in 10.0 mi West 4.6 mph - N/A   Clear
10:53 PM 42.8 °F 39.3 °F 30.2 °F 61% 29.61 in 10.0 mi West 5.8 mph - N/A   Clear
11:13 PM 42.8 °F 39.3 °F 30.2 °F 61% 29.62 in 10.0 mi West 5.8 mph - N/A   Clear
11:33 PM 42.8 °F 40.1 °F 30.2 °F 61% 29.62 in 10.0 mi West 4.6 mph - N/A   Clear
11:53 PM 42.8 °F 38.6 °F 30.2 °F 61% 29.62 in 10.0 mi West 6.9 mph - N/A   Clear